[[{"header":{"parameterUnit":"m.s-1","parameterCategory":1,"la1":30.2991,"la2":30.254,"lo1":-89.0895,"lo2":-89.0444,"dy":0.0017,"dx":0.0017,"nx":28,"ny":28,"refTime":"2025-12-31T03:00:00:Z","depth":0,"parameterNumber":2,"parameterNumberName":"U-component_of_WINDS"},"data":[0,0,0,0,0,0,0,0,0,0,0,0,0,0,0,0,0,0,0,0,0,0,0,0,0,0,0,0,0,0,0,0,0,0,0,0,0,0,0,0,0,0,0,0,0,0,0,0,0,0,0,0,0,0,0,0,0,0,4.0681,4.0683,0,4.0801,4.0802,4.0804,4.0748,4.0745,4.0742,4.0739,4.0862,4.0868,4.0874,0,0,0,0,0,0,0,0,0,0,0,0,0,4.0404,4.041,4.0681,4.0683,4.0684,4.0801,4.0802,4.0804,4.0749,4.0745,4.0741,4.0738,4.086,4.0867,4.0875,0,0,0,0,0,0,0,0,0,0,0,0,0,4.0524,4.0411,4.0681,4.0671,4.0671,4.08,4.0802,4.0804,4.0749,4.0745,4.074,4.0736,4.0858,4.0867,4.0876,4.1023,0,0,4.0904,4.0908,0,0,0,0,0,0,0,0,4.0518,4.0535,4.0671,4.0672,4.0672,4.0755,4.075,4.0878,4.075,4.072,4.0739,4.0734,4.083,4.0841,4.0874,4.1028,4.1034,4.0904,4.091,4.0914,4.0917,0,0,0,0,0,0,0,4.0509,4.0529,4.0729,4.0673,4.0674,4.066,4.0672,4.0774,4.0799,4.0722,4.0718,4.0733,4.083,4.0865,4.0876,4.1035,4.0904,4.0912,4.0918,4.0922,4.1314,4.1319,0,0,0,0,0,0,4.0501,4.0523,4.0725,4.0732,4.0582,4.0668,4.0682,4.0733,4.0798,4.0803,4.0737,4.073,4.0852,4.0866,4.088,4.1054,4.0914,4.0922,4.0928,4.1309,4.1315,4.1321,0,0,0,0,0,0,4.0496,4.052,4.072,4.0626,4.0651,4.0678,4.0736,4.0738,4.0773,4.0809,4.0813,4.0768,4.0849,4.0867,4.0987,4.1058,4.0927,4.0935,4.1304,4.1311,4.1318,4.1405,0,0,0,0,0,0,4.0488,4.0518,4.0574,4.0628,4.0656,4.0825,4.074,4.0743,4.0789,4.0781,4.0839,4.0845,4.0847,4.0974,4.0996,4.1068,4.0942,4.1297,4.1307,4.1316,4.1396,4.1414,4.143,0,0,0,0,0,4.0478,4.0595,4.0577,4.0602,4.0727,4.0829,4.0845,4.0845,4.0795,4.0851,4.0874,4.0843,4.1047,4.0986,4.1011,4.1087,4.1293,4.1304,4.1315,4.1388,4.1411,4.143,0,0,0,0,0,0,4.0549,4.0601,4.0583,4.072,4.0771,4.082,4.0891,4.0869,4.0935,4.0925,4.0922,4.0935,4.1059,4.1085,4.1017,4.1231,4.1162,4.1179,4.1209,4.1231,4.1248,4.1238,4.095,0,0,0,0,0,4.058,4.0659,4.0701,4.0818,4.0844,4.0863,4.0908,4.0903,4.0955,4.0976,4.1008,4.106,4.1135,4.1185,4.1257,4.14,4.1411,4.1464,4.1482,4.1496,4.1509,4.1585,4.1608,4.1357,4.1357,4.1357,0,0,4.0646,4.0685,4.0735,4.0833,4.0872,4.0952,4.0882,4.0971,4.103,4.099,4.1104,4.1129,4.1187,4.1318,4.1378,4.1344,4.1581,4.151,4.1521,4.1527,4.1599,4.1622,4.1643,4.1365,4.1364,4.1362,0,0,4.0807,4.0845,4.0946,4.0986,4.1044,4.1056,4.108,4.1133,4.1148,4.1262,4.1233,4.1304,4.1435,4.1476,4.1515,4.1691,4.1664,4.1715,4.1804,4.1877,4.1897,4.1914,4.1975,4.1997,4.1729,4.1729,4.1729,0,4.0881,4.1002,4.1,4.1091,4.1134,4.1102,4.1203,4.1242,4.1321,4.1352,4.1313,4.1475,4.1512,4.1651,4.1694,4.1727,4.1754,4.1707,4.1894,4.1912,4.1928,4.1985,4.2008,4.1734,4.1734,4.1733,4.1733,0,4.1089,4.1174,4.1248,4.1324,4.1377,4.1473,4.1484,4.1538,4.1529,4.1544,4.1661,4.1704,4.1782,4.1816,4.1808,4.1954,4.1931,4.1894,4.1824,4.1958,4.2011,4.2033,4.1742,4.174,4.1739,4.1737,0,0,4.1297,4.1371,4.1398,4.1431,4.1493,4.1558,4.1653,4.1729,4.1774,4.183,4.1907,4.2019,4.1984,4.2028,4.2025,4.209,4.2224,4.2045,4.2046,4.2074,4.2384,4.2409,4.2435,4.2207,4.2212,4.2215,4.2378,0,4.146,4.1623,4.1624,4.1775,4.1852,4.1822,4.1903,4.195,4.1968,4.2035,4.2055,4.2132,4.2083,4.2108,4.2171,4.2194,4.2285,4.2183,4.2278,4.2281,4.2261,4.2463,4.2491,4.2643,4.2399,4.2403,4.2406,0,4.1671,4.1733,4.1892,4.1941,4.1973,4.2047,4.2116,4.2182,4.2234,4.2242,4.229,4.2277,4.2372,4.2301,4.2431,4.2361,4.2401,4.2418,4.2423,4.243,4.2349,4.2473,4.2692,4.2713,4.2439,4.2437,4.2434,0,4.1803,4.1927,4.2036,4.2066,4.2128,4.218,4.2208,4.2256,4.2301,4.2362,4.2391,4.2464,4.2502,4.2558,4.2564,4.2512,4.2694,4.2624,4.2702,4.2702,4.2739,4.2736,4.2964,4.277,4.277,4.2769,4.2769,0,4.1983,4.2081,4.2096,4.2163,4.2271,4.2271,4.2378,4.2402,4.2445,4.2515,4.2495,4.2562,4.2568,4.2637,4.2643,4.2748,4.2766,4.2774,4.2774,4.2775,4.2773,4.2798,4.2787,4.2775,4.2774,4.2773,4.2772,0,4.2148,4.2162,4.2279,4.2328,4.2342,4.2419,4.2461,4.2525,4.254,4.263,4.2651,4.2676,4.2756,4.2768,4.2863,4.2866,4.2991,4.2982,4.2973,4.2971,4.3047,4.3038,4.3297,4.333,4.3116,4.3118,4.312,0,4.226,4.2334,4.239,4.2436,4.2466,4.2541,4.2587,4.259,4.2639,4.2704,4.276,4.2837,4.2899,4.3028,4.3054,4.3126,4.3116,4.3202,4.3126,4.3124,4.3114,4.3108,4.3114,4.3215,4.3217,4.3219,4.3221,0,4.2458,4.2461,4.2528,4.2597,4.2653,4.2708,4.276,4.2798,4.2808,4.2864,4.2945,4.2993,4.3089,4.3165,4.3236,4.3265,4.3244,4.3245,4.3266,4.3266,4.3256,4.3259,4.301,4.3238,4.3236,4.3235,4.3234,4.3234,4.2598,4.2661,4.271,4.2785,4.2824,4.2873,4.2934,4.2957,4.3025,4.3102,4.3101,4.3189,4.3239,4.3331,4.3365,4.3434,4.3406,4.3437,4.3445,4.3452,4.3458,4.3248,4.3447,4.3447,4.3446,4.3446,4.3446,0,4.2791,4.2821,4.289,4.2963,4.3022,4.2998,4.3054,4.3104,4.3182,4.323,4.3291,4.3383,4.3458,4.3489,4.3562,4.3611,4.3603,4.363,4.3624,4.3631,4.348,4.3453,4.3634,4.3634,4.3634,4.3634,4.3634,4.3634,4.2899,4.3004,4.3013,4.3137,4.3166,4.3252,4.3286,4.333,4.3368,4.3472,4.3533,4.3553,4.3595,4.367,4.3736,4.3744,4.377,4.3801,4.3804,4.3661,4.3642,4.3624,4.3598,4.3807,4.3807,4.3948,4.395,4.3951]},{"header":{"parameterUnit":"m.s-1","parameterCategory":1,"la1":30.2991,"la2":30.254,"lo1":-89.0895,"lo2":-89.0444,"dy":0.0017,"dx":0.0017,"nx":28,"ny":28,"refTime":"2025-12-31T03:00:00:Z","depth":0,"parameterNumber":3,"parameterNumberName":"V-component_of_WINDS"},"data":[0,0,0,0,0,0,0,0,0,0,0,0,0,0,0,0,0,0,0,0,0,0,0,0,0,0,0,0,0,0,0,0,0,0,0,0,0,0,0,0,0,0,0,0,0,0,0,0,0,0,0,0,0,0,0,0,0,0,1.3895,1.3896,0,1.3955,1.3956,1.3957,1.3976,1.3976,1.3976,1.3975,1.4035,1.4037,1.4039,0,0,0,0,0,0,0,0,0,0,0,0,0,1.3794,1.3796,1.3895,1.3896,1.3896,1.3955,1.3956,1.3957,1.3976,1.3976,1.3976,1.3975,1.4035,1.4037,1.4039,0,0,0,0,0,0,0,0,0,0,0,0,0,1.3844,1.3796,1.3895,1.3913,1.3916,1.3955,1.3956,1.3957,1.3976,1.3976,1.3976,1.3975,1.4034,1.4037,1.4039,1.4064,0,0,1.4048,1.4049,0,0,0,0,0,0,0,0,1.3841,1.3848,1.391,1.3912,1.3915,1.3958,1.3942,1.3993,1.3976,1.3953,1.3975,1.3975,1.401,1.4014,1.4026,1.4067,1.4069,1.4048,1.405,1.4051,1.4052,0,0,0,0,0,0,0,1.3838,1.3845,1.3919,1.3911,1.3914,1.3918,1.3924,1.3952,1.3983,1.3955,1.3957,1.3964,1.4011,1.4024,1.4028,1.407,1.4048,1.405,1.4052,1.4053,1.4132,1.4133,0,0,0,0,0,0,1.3832,1.3842,1.3917,1.392,1.3876,1.392,1.3927,1.3944,1.3983,1.3988,1.3964,1.3964,1.4019,1.4025,1.403,1.4061,1.4051,1.4053,1.4055,1.4132,1.4132,1.4133,0,0,0,0,0,0,1.3829,1.3838,1.3914,1.3882,1.3892,1.3922,1.3941,1.3946,1.3959,1.3989,1.3995,1.3972,1.4019,1.4026,1.4055,1.4063,1.4055,1.4057,1.4131,1.4132,1.4133,1.4123,0,0,0,0,0,0,1.3826,1.3837,1.3848,1.3882,1.3894,1.3939,1.3941,1.3947,1.3964,1.3965,1.3998,1.4003,1.4019,1.4051,1.4058,1.4067,1.4059,1.4131,1.4132,1.4133,1.4123,1.4123,1.4124,0,0,0,0,0,1.3823,1.3842,1.3848,1.3857,1.3908,1.394,1.3946,1.3965,1.3964,1.3974,1.3994,1.4002,1.4061,1.4054,1.4062,1.4072,1.413,1.4131,1.4132,1.4123,1.4123,1.4124,0,0,0,0,0,0,1.3808,1.3847,1.3854,1.3886,1.3909,1.3943,1.3957,1.3966,1.399,1.399,1.4012,1.4019,1.4046,1.4062,1.4053,1.4097,1.4096,1.4099,1.4086,1.4087,1.4087,1.4083,1.4062,0,0,0,0,0,1.3808,1.3832,1.3865,1.389,1.3901,1.3927,1.3942,1.3954,1.3979,1.3989,1.4011,1.4034,1.4058,1.4073,1.4097,1.4125,1.4132,1.4135,1.4136,1.4136,1.4138,1.4153,1.4155,1.4136,1.4136,1.4136,0,0,1.381,1.3834,1.3848,1.3887,1.3907,1.393,1.3935,1.396,1.3977,1.3993,1.4021,1.4038,1.4065,1.4093,1.4107,1.4107,1.4145,1.4137,1.4137,1.4139,1.4154,1.4156,1.4157,1.4137,1.4137,1.4137,0,0,1.3824,1.3845,1.3867,1.3887,1.3917,1.3933,1.3938,1.3971,1.3982,1.4012,1.4024,1.4044,1.4084,1.4103,1.4118,1.4137,1.4145,1.4144,1.4147,1.4161,1.4162,1.4164,1.417,1.4172,1.4146,1.4146,1.4146,0,1.3821,1.3857,1.3877,1.3901,1.3918,1.3933,1.3955,1.3973,1.4009,1.4019,1.4019,1.407,1.409,1.4122,1.4126,1.4138,1.4144,1.4141,1.4161,1.4162,1.4164,1.417,1.4172,1.4146,1.4146,1.4146,1.4146,0,1.3852,1.3877,1.3891,1.3926,1.3944,1.3966,1.3989,1.4004,1.4015,1.4031,1.406,1.4084,1.4112,1.412,1.4131,1.4154,1.4153,1.4156,1.4156,1.4165,1.4171,1.4173,1.4145,1.4145,1.4145,1.4145,0,0,1.386,1.3904,1.3909,1.3924,1.3958,1.3977,1.3999,1.4027,1.404,1.4063,1.4082,1.4115,1.4119,1.4135,1.4148,1.416,1.4173,1.4162,1.4163,1.4163,1.4198,1.4195,1.4198,1.4178,1.4178,1.4179,1.4196,0,1.3878,1.392,1.3938,1.3971,1.3994,1.4008,1.4027,1.4049,1.4065,1.4085,1.4102,1.4125,1.4127,1.4137,1.415,1.4168,1.418,1.4167,1.4195,1.4196,1.4188,1.4201,1.4198,1.4213,1.4198,1.4199,1.4199,0,1.3904,1.3928,1.3964,1.3994,1.4004,1.4021,1.4047,1.4067,1.4091,1.4102,1.412,1.4131,1.4154,1.4152,1.4183,1.4174,1.4186,1.4196,1.4197,1.4201,1.4198,1.4204,1.4218,1.422,1.4203,1.4203,1.4202,0,1.3905,1.3946,1.3973,1.3986,1.4021,1.4033,1.4048,1.4072,1.4087,1.4109,1.4119,1.4144,1.4157,1.4176,1.4193,1.419,1.4222,1.4222,1.4231,1.423,1.4237,1.4236,1.4253,1.4245,1.4245,1.4245,1.4245,0,1.3924,1.3945,1.3974,1.399,1.4014,1.4033,1.4056,1.4072,1.4093,1.4111,1.4125,1.4142,1.4164,1.4183,1.4197,1.422,1.4226,1.4234,1.4238,1.4233,1.4232,1.4242,1.4241,1.4245,1.4245,1.4245,1.4245,0,1.3929,1.3949,1.3979,1.401,1.4018,1.4034,1.4059,1.4075,1.4091,1.4114,1.4121,1.4145,1.4168,1.4187,1.4218,1.4227,1.4251,1.4255,1.4243,1.4245,1.4252,1.4251,1.4276,1.4279,1.4269,1.4269,1.4269,0,1.3939,1.3956,1.3988,1.4002,1.4017,1.4039,1.4054,1.4074,1.4089,1.4117,1.4129,1.4154,1.4174,1.4211,1.423,1.4253,1.4258,1.4265,1.4261,1.4256,1.4257,1.4256,1.4257,1.4265,1.4265,1.4265,1.4265,0,1.3955,1.3964,1.3986,1.4011,1.403,1.405,1.4071,1.4081,1.4105,1.4121,1.4145,1.4161,1.4192,1.4216,1.4241,1.4255,1.4264,1.4266,1.4269,1.4265,1.4257,1.4261,1.4243,1.4265,1.4265,1.4265,1.4265,1.4265,1.3963,1.3978,1.4003,1.4026,1.4044,1.4063,1.4079,1.4096,1.4117,1.4145,1.4154,1.4179,1.4201,1.4236,1.425,1.4269,1.427,1.4275,1.4276,1.4277,1.4276,1.4254,1.4273,1.4273,1.4273,1.4274,1.4274,0,1.3979,1.3995,1.4017,1.4046,1.4064,1.4071,1.4094,1.4109,1.4131,1.4151,1.4171,1.4198,1.4221,1.4242,1.4265,1.4276,1.428,1.4281,1.4281,1.4284,1.4274,1.4269,1.4277,1.4277,1.4277,1.4277,1.4277,1.4277,1.3989,1.4015,1.4026,1.406,1.4076,1.4101,1.4113,1.4131,1.4147,1.4177,1.4196,1.421,1.423,1.4255,1.4275,1.4281,1.4289,1.4288,1.4295,1.4285,1.4285,1.4284,1.4279,1.429,1.429,1.4303,1.4303,1.4303]}]]